Flag Weather past 2 weeks in Springfield, Massachusetts, U.S.A.

Now
47 °F

Clear.


Feels Like: 43 °F
Forecast: 42 / 57 °F
Wind: 7 mph from Southwest

Location: Barnes Municipal Airport

Current Time: Nov 25, 2014 at 6:20:13 PM

Latest Report: Nov 25, 2014 at 5:53 PM


Visibility: 10 mi

Pressure: 30.00 "Hg

Humidity: 44%

Dew point: 26 °F

Location of SpringfieldLocation

Historic Weather in Springfield — Graph

°F

Springfield temperature yesterday

Maximum temperature yesterday: 65 °F (at 12:53 PM)
Minimum temperature yesterday: 39 °F (at 12:53 AM)
Average temperature yesterday: 53 °F

Past Weeks' High & Low Weather Summary

 TemperatureHumidityPressure
High65 °F (Nov 24, 12:53 PM)97% (Nov 12, 2:53 AM)30.47 "Hg (Nov 12, 2:53 AM)
Low16 °F (Nov 22, 6:53 AM)24% (Nov 19, 2:53 PM)29.47 "Hg (Nov 17, 8:53 PM)
Average38 °F63%30.03 "Hg
* Reported Nov 10 4:53 PM — Nov 25 4:53 PM, Springfield, Weather by CustomWeather, © 2014

Note: Actual official high and low records may vary slightly from our data, if they occured in-between our weather recording intervals... More about our weather records

Advertising

Springfield weather history for previous 24 hours

 ConditionsComfort  
Time TempWeatherWind HumidityBarometerVisibility
4:53 PM
Nov 25
48 °FClear.8 mph44%29.98 "Hg10 mi
3:53 PM53 °FSunny.9 mph37%29.94 "Hg10 mi
2:53 PM55 °FSunny.8 mph34%29.91 "Hg10 mi
1:53 PM56 °FSunny.9 mph32%29.91 "Hg10 mi
12:53 PM57 °FSunny.8 mph33%29.90 "Hg10 mi
11:53 AM57 °FSunny.9 mph34%29.91 "Hg10 mi
10:53 AM57 °FScattered clouds.8 mph39%29.90 "Hg10 mi
9:53 AM58 °FPartly sunny.8 mph38%29.89 "Hg10 mi
8:53 AM58 °FPassing clouds.8 mph39%29.87 "Hg10 mi
7:53 AM58 °FPassing clouds.13 mph43%29.85 "Hg10 mi
6:53 AM57 °FSunny.10 mph69%29.82 "Hg10 mi
5:53 AM58 °FClear.8 mph58%29.78 "Hg10 mi
4:53 AM58 °FClear.6 mph70%29.76 "Hg10 mi
3:53 AM58 °FClear.6 mph78%29.73 "Hg10 mi
2:53 AM59 °FClear.3 mph78%29.72 "Hg10 mi
1:53 AM63 °FClear.5 mph73%29.71 "Hg10 mi
12:53 AM62 °FClear.8 mph75%29.70 "Hg10 mi
11:53 PM
Nov 24
61 °FPassing clouds.6 mph75%29.70 "Hg10 mi
10:53 PM61 °FPassing clouds.7 mph78%29.68 "Hg10 mi
9:53 PM60 °FClear.7 mph80%29.67 "Hg10 mi
8:53 PM59 °FClear.7 mph84%29.66 "Hg10 mi
7:53 PM59 °FClear.9 mph87%29.65 "Hg10 mi
6:53 PM59 °FClear.8 mph90%29.63 "Hg10 mi
Weather by CustomWeather, © 2014

See weather overviewHow to use our weather pages